#�ϑ�����,���ϕ���,���ϕ���,�ő啗��,�ő啗����������,�ő�u�ԕ���,�ő�u�ԕ�����������
#(�N����),(m/s)   ,(16����),(m/s)   ,(16����)        ,(m/s)       ,(16����)            
2016/6/12 0:01,1.9,3,1.9,3,2.5,3
2016/6/12 0:02,1.9,3,1.9,3,2.2,4
2016/6/12 0:03,1.8,3,1.9,3,1.8,3
2016/6/12 0:04,1.7,3,1.8,3,2,2
2016/6/12 0:05,1.7,3,1.7,3,1.6,4
2016/6/12 0:06,1.6,3,1.6,3,1.6,3
2016/6/12 0:07,1.6,3,1.6,3,3.2,3
2016/6/12 0:08,1.6,3,1.6,3,3.1,2
2016/6/12 0:09,1.5,3,1.6,3,1.5,4
2016/6/12 0:10,1.4,3,1.5,3,1.6,6
2016/6/12 0:11,1.3,3,1.4,3,1.6,3
2016/6/12 0:12,1.3,3,1.3,3,2.2,3
2016/6/12 0:13,1.4,3,1.4,3,2.6,3
2016/6/12 0:14,1.4,3,1.4,3,2.5,4
2016/6/12 0:15,1.5,3,1.5,3,2.4,4
2016/6/12 0:16,1.5,3,1.5,3,1.8,3
2016/6/12 0:17,1.4,3,1.5,3,1.3,3
2016/6/12 0:18,1.3,3,1.4,3,2,3
2016/6/12 0:19,1.4,3,1.4,3,3,3
2016/6/12 0:20,1.5,3,1.5,3,2.1,4
2016/6/12 0:21,1.5,3,1.5,3,3.5,2
2016/6/12 0:22,1.7,3,1.7,3,3.3,3
2016/6/12 0:23,1.6,3,1.7,3,3.1,3
2016/6/12 0:24,1.6,3,1.7,3,2.5,3
2016/6/12 0:25,1.6,3,1.6,3,2,3
2016/6/12 0:26,1.7,3,1.7,3,3.2,3
2016/6/12 0:27,1.8,3,1.8,3,3.8,3
2016/6/12 0:28,2,3,2,3,3.5,3
2016/6/12 0:29,2,3,2,3,2.5,3
2016/6/12 0:30,2,3,2,3,2.7,3
2016/6/12 0:31,2,3,2,3,2.6,2
2016/6/12 0:32,1.9,3,2,3,2.7,3
2016/6/12 0:33,1.9,3,1.9,3,3.3,3
2016/6/12 0:34,1.9,3,1.9,3,3,4
2016/6/12 0:35,1.9,3,1.9,3,2.9,3
2016/6/12 0:36,1.9,3,1.9,3,2.9,5
2016/6/12 0:37,1.8,3,1.9,3,2.9,5
2016/6/12 0:38,1.7,3,1.8,3,2.1,3
2016/6/12 0:39,1.7,3,1.7,3,2.2,4
2016/6/12 0:40,1.7,3,1.7,3,3,3
2016/6/12 0:41,1.7,3,1.7,3,2.5,3
2016/6/12 0:42,1.7,3,1.8,3,2.5,3
2016/6/12 0:43,1.7,3,1.8,3,2.5,3
2016/6/12 0:44,1.6,3,1.7,3,1.9,2
2016/6/12 0:45,1.6,3,1.6,3,2.2,3
2016/6/12 0:46,1.6,3,1.6,3,2.6,3
2016/6/12 0:47,1.7,3,1.7,3,3.1,3
2016/6/12 0:48,1.7,3,1.7,3,2.7,2
2016/6/12 0:49,1.8,2,1.8,3,3.3,2
2016/6/12 0:50,1.7,2,1.8,3,1.6,2
2016/6/12 0:51,1.6,2,1.7,3,2.4,3
2016/6/12 0:52,1.7,3,1.7,3,2.9,3
2016/6/12 0:53,1.7,3,1.7,2,2.4,3
2016/6/12 0:54,1.6,3,1.7,2,1.5,2
2016/6/12 0:55,1.7,3,1.7,2,3.2,3
2016/6/12 0:56,1.7,3,1.7,2,3.8,3
2016/6/12 0:57,1.7,2,1.8,2,3.1,3
2016/6/12 0:58,1.8,3,1.8,2,3,2
2016/6/12 0:59,1.8,2,1.8,2,2.9,2
2016/6/12 1:00,2,3,2,3,3.8,3
2016/6/12 1:01,2,2,2,3,3.2,3
2016/6/12 1:02,2,2,2,3,3.3,2
2016/6/12 1:03,2,2,2,3,2.4,3
2016/6/12 1:04,2.1,3,2.1,2,2.2,3
2016/6/12 1:05,2.1,3,2.1,2,2.4,2
2016/6/12 1:06,2,3,2.1,2,2.2,3
2016/6/12 1:07,2,3,2,2,1.8,3
2016/6/12 1:08,1.9,3,1.9,2,2.1,3
2016/6/12 1:09,1.9,3,1.9,2,2.5,3
2016/6/12 1:10,1.7,3,1.8,2,2.7,3
2016/6/12 1:11,1.7,3,1.7,2,2.7,3
2016/6/12 1:12,1.7,3,1.7,2,2.9,3
2016/6/12 1:13,1.7,3,1.7,2,2.4,3
2016/6/12 1:14,1.7,3,1.7,3,3,3
2016/6/12 1:15,1.7,3,1.7,3,3.6,3
2016/6/12 1:16,1.7,2,1.7,3,3.1,2
2016/6/12 1:17,1.8,2,1.8,3,2.9,3
2016/6/12 1:18,1.8,2,1.8,3,2.6,2
2016/6/12 1:19,1.8,2,1.8,3,2.7,2
2016/6/12 1:20,1.7,2,1.8,2,1.4,3
2016/6/12 1:21,1.6,2,1.7,2,2.2,3
2016/6/12 1:22,1.6,2,1.7,2,2.2,3
2016/6/12 1:23,1.6,2,1.7,2,2.1,3
2016/6/12 1:24,1.6,2,1.6,2,2.5,3
2016/6/12 1:25,1.6,2,1.6,2,3.1,3
2016/6/12 1:26,1.6,2,1.6,2,2.6,2
2016/6/12 1:27,1.5,2,1.6,2,2,4
2016/6/12 1:28,1.5,2,1.5,2,1.9,3
2016/6/12 1:29,1.5,3,1.5,2,3,3
2016/6/12 1:30,1.5,3,1.5,2,2,4
2016/6/12 1:31,1.5,3,1.5,2,1.8,2
2016/6/12 1:32,1.4,2,1.5,2,1.6,2
2016/6/12 1:33,1.4,2,1.4,2,2.5,2
2016/6/12 1:34,1.5,3,1.5,2,2.4,2
2016/6/12 1:35,1.4,3,1.5,2,2.2,3
2016/6/12 1:36,1.3,2,1.4,2,1.3,2
2016/6/12 1:37,1.3,2,1.3,2,2.2,4
2016/6/12 1:38,1.4,3,1.4,2,2.5,4
2016/6/12 1:39,1.4,3,1.4,3,2.7,3
2016/6/12 1:40,1.5,3,1.5,3,2.9,3
2016/6/12 1:41,1.6,3,1.6,3,2.6,3
2016/6/12 1:42,1.7,3,1.7,3,3.1,3
2016/6/12 1:43,1.8,3,1.8,3,3.2,3
2016/6/12 1:44,1.8,3,1.8,3,2,4
2016/6/12 1:45,1.8,3,1.8,3,2.6,4
2016/6/12 1:46,1.9,3,1.9,3,3.1,3
2016/6/12 1:47,1.9,4,2,3,2.4,5
2016/6/12 1:48,1.9,4,1.9,3,2.9,3
2016/6/12 1:49,1.9,4,1.9,3,2,3
2016/6/12 1:50,1.8,4,1.8,3,2,3
2016/6/12 1:51,1.8,4,1.8,3,1.9,3
2016/6/12 1:52,1.7,4,1.8,3,1.5,3
2016/6/12 1:53,1.6,4,1.7,3,2,5
2016/6/12 1:54,1.6,4,1.6,3,2.1,5
2016/6/12 1:55,1.5,4,1.6,3,1.8,4
2016/6/12 1:56,1.4,4,1.5,3,1.5,4
2016/6/12 1:57,1.4,4,1.4,4,2.4,3
2016/6/12 1:58,1.4,4,1.4,4,2.7,6
2016/6/12 1:59,1.4,4,1.4,4,2,6
2016/6/12 2:00,1.3,4,1.4,4,1.9,7
2016/6/12 2:01,1.3,4,1.3,4,2,5
2016/6/12 2:02,1.4,4,1.4,4,2.1,5
2016/6/12 2:03,1.4,4,1.4,4,1.8,5
2016/6/12 2:04,1.3,5,1.4,4,1.4,5
2016/6/12 2:05,1.3,5,1.3,4,1.5,5
2016/6/12 2:06,1.3,5,1.3,4,0.9,5
2016/6/12 2:07,1.3,5,1.3,4,1.5,4
2016/6/12 2:08,1.2,5,1.3,4,2.2,4
2016/6/12 2:09,1.2,5,1.2,4,2.2,4
2016/6/12 2:10,1.2,5,1.3,4,1.9,4
2016/6/12 2:11,1.2,5,1.2,4,1.3,5
2016/6/12 2:12,1.1,5,1.2,4,1.5,5
2016/6/12 2:13,1.1,5,1.1,4,2.9,4
2016/6/12 2:14,1.2,5,1.2,5,3.3,4
2016/6/12 2:15,1.3,5,1.3,5,2.9,5
2016/6/12 2:16,1.4,5,1.4,5,2.6,5
2016/6/12 2:17,1.5,5,1.5,5,2.1,5
2016/6/12 2:18,1.5,5,1.5,5,2.2,6
2016/6/12 2:19,1.6,5,1.6,5,3.2,4
2016/6/12 2:20,1.6,4,1.6,5,2.5,2
2016/6/12 2:21,1.7,4,1.7,4,1.5,4
2016/6/12 2:22,1.7,4,1.7,4,1.5,3
2016/6/12 2:23,1.6,4,1.6,4,2,4
2016/6/12 2:24,1.6,4,1.6,4,2.4,3
2016/6/12 2:25,1.6,4,1.6,4,3,5
2016/6/12 2:26,1.5,4,1.6,4,3,4
2016/6/12 2:27,1.6,4,1.6,4,3,4
2016/6/12 2:28,1.6,4,1.6,4,2.2,5
2016/6/12 2:29,1.6,4,1.6,4,2.2,5
2016/6/12 2:30,1.6,4,1.6,4,3,5
2016/6/12 2:31,1.7,4,1.7,4,3,4
2016/6/12 2:32,1.8,4,1.8,4,2.6,5
2016/6/12 2:33,1.8,4,1.8,4,2.6,4
2016/6/12 2:34,1.8,4,1.8,4,1.8,5
2016/6/12 2:35,1.6,5,1.8,4,1.6,5
2016/6/12 2:36,1.6,4,1.6,4,1.9,4
2016/6/12 2:37,1.5,4,1.6,4,1.9,6
2016/6/12 2:38,1.5,4,1.5,4,2,4
2016/6/12 2:39,1.5,4,1.5,4,1.8,3
2016/6/12 2:40,1.4,4,1.5,4,2.2,4
2016/6/12 2:41,1.3,4,1.4,4,2.1,4
2016/6/12 2:42,1.3,4,1.4,4,2,4
2016/6/12 2:43,1.2,4,1.3,4,1.8,7
2016/6/12 2:44,1.3,4,1.3,4,2.9,5
2016/6/12 2:45,1.4,4,1.4,4,3.1,5
2016/6/12 2:46,1.5,5,1.5,4,2.6,5
2016/6/12 2:47,1.5,5,1.5,4,1.9,6
2016/6/12 2:48,1.4,4,1.4,4,1.4,3
2016/6/12 2:49,1.4,5,1.4,4,1.9,5
2016/6/12 2:50,1.5,5,1.5,4,2.7,4
2016/6/12 2:51,1.5,5,1.5,4,3.1,4
2016/6/12 2:52,1.6,5,1.6,5,3.2,4
2016/6/12 2:53,1.7,4,1.7,5,2.9,3
2016/6/12 2:54,1.6,5,1.7,5,2.2,5
2016/6/12 2:55,1.7,5,1.7,5,3.6,5
2016/6/12 2:56,1.7,5,1.7,5,2.9,6
2016/6/12 2:57,1.7,5,1.7,5,2.1,6
2016/6/12 2:58,1.8,5,1.8,5,3,5
2016/6/12 2:59,1.9,5,1.9,5,2.5,4
2016/6/12 3:00,1.9,5,1.9,5,2.5,5
2016/6/12 3:01,1.9,5,1.9,5,2.2,6
2016/6/12 3:02,1.8,5,1.9,5,2.2,5
2016/6/12 3:03,1.8,5,1.8,5,1.6,6
2016/6/12 3:04,1.7,5,1.8,5,1.4,5
2016/6/12 3:05,1.6,5,1.7,5,1.5,5
2016/6/12 3:06,1.5,5,1.6,5,1.5,5
2016/6/12 3:07,1.5,5,1.5,5,1.6,7
2016/6/12 3:08,1.4,5,1.5,5,2.1,5
2016/6/12 3:09,1.3,5,1.4,5,1.8,4
2016/6/12 3:10,1.3,5,1.3,5,3.1,6
2016/6/12 3:11,1.4,5,1.4,5,3.1,5
2016/6/12 3:12,1.4,5,1.4,5,3.3,5
2016/6/12 3:13,1.5,5,1.5,5,2.4,5
2016/6/12 3:14,1.6,5,1.6,5,2.2,4
2016/6/12 3:15,1.7,5,1.7,5,2.5,6
2016/6/12 3:16,1.7,5,1.7,5,2.2,5
2016/6/12 3:17,1.8,5,1.8,5,2.4,5
2016/6/12 3:18,1.8,5,1.8,5,3,5
2016/6/12 3:19,1.9,5,1.9,5,2.7,5
2016/6/12 3:20,1.9,5,1.9,5,2.2,5
2016/6/12 3:21,1.8,5,1.8,5,2.9,6
2016/6/12 3:22,1.8,5,1.8,5,2.6,6
2016/6/12 3:23,1.8,6,1.8,5,2.2,6
2016/6/12 3:24,1.7,6,1.8,5,1.9,6
2016/6/12 3:25,1.6,6,1.7,5,1.5,6
2016/6/12 3:26,1.5,6,1.6,5,1.5,6
2016/6/12 3:27,1.5,6,1.5,5,1.9,6
2016/6/12 3:28,1.5,6,1.5,5,2.4,5
2016/6/12 3:29,1.5,6,1.5,5,2.5,5
2016/6/12 3:30,1.5,6,1.5,5,2.5,6
2016/6/12 3:31,1.5,6,1.6,5,2,6
2016/6/12 3:32,1.5,6,1.5,6,1.9,5
2016/6/12 3:33,1.5,6,1.5,6,2.4,6
2016/6/12 3:34,1.5,6,1.5,6,3,5
2016/6/12 3:35,1.6,6,1.6,6,3.3,4
2016/6/12 3:36,1.8,5,1.8,5,2.5,5
2016/6/12 3:37,1.8,5,1.8,5,3.1,5
2016/6/12 3:38,1.9,5,1.9,5,3.3,5
2016/6/12 3:39,2,5,2,5,3,5
2016/6/12 3:40,2,5,2,5,2.7,4
2016/6/12 3:41,2,5,2,5,3.2,3
2016/6/12 3:42,2.1,5,2.1,5,2.4,5
2016/6/12 3:43,2.1,5,2.1,5,2.4,2
2016/6/12 3:44,2.1,4,2.1,5,2.9,3
2016/6/12 3:45,1.9,4,2.1,5,1.8,4
2016/6/12 3:46,1.9,4,1.9,5,1.8,3
2016/6/12 3:47,1.8,4,1.8,5,2.5,3
2016/6/12 3:48,1.7,4,1.8,5,2.9,5
2016/6/12 3:49,1.6,4,1.7,5,2.6,4
2016/6/12 3:50,1.5,4,1.6,5,1.9,5
2016/6/12 3:51,1.4,4,1.5,5,1.3,6
2016/6/12 3:52,1.3,4,1.4,5,1.6,6
2016/6/12 3:53,1.3,4,1.3,5,1.5,6
2016/6/12 3:54,1.2,5,1.3,4,1.4,6
2016/6/12 3:55,1.2,5,1.2,4,1.4,4
2016/6/12 3:56,1.1,5,1.2,4,1.3,5
2016/6/12 3:57,1.1,5,1.1,4,0.8,4
2016/6/12 3:58,0.9,5,1.1,4,1.3,6
2016/6/12 3:59,0.8,5,0.9,4,1,6
2016/6/12 4:00,0.8,5,0.8,4,1.4,6
2016/6/12 4:01,0.8,6,0.8,4,1.9,7
2016/6/12 4:02,0.9,5,0.9,4,1.5,5
2016/6/12 4:03,0.8,5,0.8,4,1.9,3
2016/6/12 4:04,0.8,5,0.9,5,1.8,3
2016/6/12 4:05,0.9,5,0.9,5,2,3
2016/6/12 4:06,0.9,5,0.9,5,2,3
2016/6/12 4:07,0.9,5,0.9,5,1.8,4
2016/6/12 4:08,1,5,1,5,1.9,4
2016/6/12 4:09,1.1,4,1.1,5,1.8,4
2016/6/12 4:10,1.1,4,1.1,5,1,5
2016/6/12 4:11,1,4,1.1,5,1,5
2016/6/12 4:12,1,4,1,5,1.8,3
2016/6/12 4:13,1.1,4,1.1,5,2.9,4
2016/6/12 4:14,1.2,4,1.2,4,2.9,4
2016/6/12 4:15,1.3,4,1.3,4,3,7
2016/6/12 4:16,1.3,4,1.3,4,2,4
2016/6/12 4:17,1.3,4,1.3,4,2.2,5
2016/6/12 4:18,1.3,4,1.3,4,2,4
2016/6/12 4:19,1.3,4,1.3,4,1.6,4
2016/6/12 4:20,1.4,4,1.4,4,2.4,4
2016/6/12 4:21,1.6,4,1.6,4,3,5
2016/6/12 4:22,1.7,4,1.7,4,3.5,4
2016/6/12 4:23,1.6,5,1.7,4,2.7,4
2016/6/12 4:24,1.6,5,1.6,4,2.9,5
2016/6/12 4:25,1.6,5,1.6,4,2.7,4
2016/6/12 4:26,1.7,5,1.7,4,3.2,4
2016/6/12 4:27,1.7,5,1.8,5,2.5,5
2016/6/12 4:28,1.9,5,1.9,5,3.7,4
2016/6/12 4:29,2,5,2,5,4.1,4
2016/6/12 4:30,2,5,2,5,2.9,5
2016/6/12 4:31,2,5,2,5,2.6,4
2016/6/12 4:32,2,5,2,5,3.3,5
2016/6/12 4:33,2.1,5,2.1,5,3.2,5
2016/6/12 4:34,2.2,4,2.2,4,3.9,5
2016/6/12 4:35,2.2,4,2.3,4,3.7,5
2016/6/12 4:36,2.2,4,2.2,4,2.7,4
2016/6/12 4:37,2.3,4,2.3,4,2.4,4
2016/6/12 4:38,2.2,5,2.3,4,2.6,4
2016/6/12 4:39,2.1,5,2.2,4,1.9,5
2016/6/12 4:40,2,4,2.1,4,1.8,6
2016/6/12 4:41,2,4,2,4,2.7,3
2016/6/12 4:42,1.9,4,2,4,2.1,4
2016/6/12 4:43,1.9,4,1.9,4,3.3,4
2016/6/12 4:44,1.9,4,1.9,4,3.6,5
2016/6/12 4:45,1.8,4,1.9,4,2.9,4
2016/6/12 4:46,1.8,4,1.8,4,2.9,3
2016/6/12 4:47,1.9,4,1.9,4,3.1,5
2016/6/12 4:48,1.8,4,1.9,5,2.1,4
2016/6/12 4:49,1.9,4,1.9,5,3,5
2016/6/12 4:50,2,4,2,4,2.7,4
2016/6/12 4:51,1.9,4,2,4,2.1,4
2016/6/12 4:52,1.9,4,1.9,4,1.9,3
2016/6/12 4:53,1.7,4,1.9,4,1.4,3
2016/6/12 4:54,1.7,4,1.7,4,2.2,3
2016/6/12 4:55,1.6,4,1.6,4,2.5,3
2016/6/12 4:56,1.7,4,1.7,4,3.6,3
2016/6/12 4:57,1.6,4,1.7,4,2.5,3
2016/6/12 4:58,1.6,4,1.6,4,2.2,4
2016/6/12 4:59,1.6,4,1.6,4,2.9,3
2016/6/12 5:00,1.6,4,1.6,4,2.7,3
2016/6/12 5:01,1.7,4,1.7,4,2.2,3
2016/6/12 5:02,1.7,4,1.7,4,2.5,4
2016/6/12 5:03,1.9,3,1.9,3,2.5,3
2016/6/12 5:04,1.9,3,1.9,3,2.6,3
2016/6/12 5:05,1.9,3,1.9,3,3,4
2016/6/12 5:06,1.9,3,1.9,3,2.6,3
2016/6/12 5:07,1.8,3,1.9,3,2.1,4
2016/6/12 5:08,1.8,3,1.8,3,1.6,3
2016/6/12 5:09,1.8,3,1.8,3,2.2,3
2016/6/12 5:10,1.7,3,1.8,3,2.1,3
2016/6/12 5:11,1.8,3,1.8,3,2.5,4
2016/6/12 5:12,1.7,3,1.8,3,2.1,5
2016/6/12 5:13,1.6,3,1.7,3,1.4,5
2016/6/12 5:14,1.5,4,1.6,3,1.9,3
2016/6/12 5:15,1.5,4,1.5,3,1.9,2
2016/6/12 5:16,1.4,4,1.5,3,1.8,4
2016/6/12 5:17,1.4,3,1.4,3,2,2
2016/6/12 5:18,1.3,4,1.4,3,1.5,4
2016/6/12 5:19,1.3,4,1.3,3,1.5,2
2016/6/12 5:20,1.2,4,1.3,3,2,5
2016/6/12 5:21,1.2,4,1.2,3,2.6,3
2016/6/12 5:22,1.2,3,1.2,3,2.7,3
2016/6/12 5:23,1.1,3,1.2,4,1.1,4
2016/6/12 5:24,1.2,3,1.2,4,2.1,3
2016/6/12 5:25,1.2,3,1.2,4,2,3
2016/6/12 5:26,1.2,3,1.2,4,1.8,3
2016/6/12 5:27,1.1,3,1.2,3,3.3,3
2016/6/12 5:28,1.2,3,1.2,4,2.9,2
2016/6/12 5:29,1.3,3,1.3,4,2.9,4
2016/6/12 5:30,1.3,3,1.3,3,2.1,3
2016/6/12 5:31,1.4,3,1.4,3,2.2,4
2016/6/12 5:32,1.3,3,1.4,3,1.8,2
2016/6/12 5:33,1.4,3,1.4,3,1.6,2
2016/6/12 5:34,1.3,3,1.3,3,1.9,2
2016/6/12 5:35,1.3,3,1.3,3,2,3
2016/6/12 5:36,1.3,3,1.3,3,2.1,1
2016/6/12 5:37,1.3,2,1.4,3,2.1,1
2016/6/12 5:38,1.3,2,1.3,3,1.5,1
2016/6/12 5:39,1.2,2,1.3,3,1.6,16
2016/6/12 5:40,1.1,2,1.2,3,1.8,2
2016/6/12 5:41,1.1,2,1.1,3,1.8,2
2016/6/12 5:42,1,2,1.1,3,1.4,2
2016/6/12 5:43,1,2,1,2,1.5,2
2016/6/12 5:44,1.1,2,1.1,2,1.9,2
2016/6/12 5:45,1.1,1,1.1,2,1.9,2
2016/6/12 5:46,1.1,1,1.1,2,1.6,2
2016/6/12 5:47,1.1,2,1.1,2,2.4,1
2016/6/12 5:48,1.2,1,1.2,2,2.7,1
2016/6/12 5:49,1.2,1,1.2,2,2,1
2016/6/12 5:50,1.2,1,1.3,1,2.2,2
2016/6/12 5:51,1.3,1,1.3,1,2.1,1
2016/6/12 5:52,1.4,2,1.4,2,2.9,3
2016/6/12 5:53,1.4,2,1.4,2,2,2
2016/6/12 5:54,1.4,2,1.4,2,2.2,2
2016/6/12 5:55,1.4,2,1.4,2,1.9,3
2016/6/12 5:56,1.4,2,1.4,2,2.4,2
2016/6/12 5:57,1.5,2,1.5,2,2.6,2
2016/6/12 5:58,1.5,2,1.5,2,2.7,3
2016/6/12 5:59,1.5,2,1.5,2,2.7,3
2016/6/12 6:00,1.5,2,1.5,2,1.9,3
2016/6/12 6:01,1.4,2,1.5,2,1.1,4
2016/6/12 6:02,1.4,2,1.4,2,2.7,16
2016/6/12 6:03,1.4,2,1.4,2,1.8,2
2016/6/12 6:04,1.4,2,1.4,2,2.4,4
2016/6/12 6:05,1.5,2,1.5,2,2.1,3
2016/6/12 6:06,1.5,2,1.5,2,2,3
2016/6/12 6:07,1.4,3,1.5,2,2,3
2016/6/12 6:08,1.4,3,1.4,2,1.8,3
2016/6/12 6:09,1.4,3,1.4,2,1.8,4
2016/6/12 6:10,1.4,3,1.4,2,2.7,2
2016/6/12 6:11,1.4,3,1.4,2,1.4,2
2016/6/12 6:12,1.4,3,1.4,2,2.4,4
2016/6/12 6:13,1.5,3,1.5,2,3.6,3
2016/6/12 6:14,1.5,3,1.5,2,3,4
2016/6/12 6:15,1.5,3,1.5,2,2.5,4
2016/6/12 6:16,1.5,3,1.5,2,2.6,3
2016/6/12 6:17,1.6,3,1.6,3,2.9,3
2016/6/12 6:18,1.6,4,1.6,3,2.1,5
2016/6/12 6:19,1.6,4,1.6,3,1.6,5
2016/6/12 6:20,1.5,4,1.6,3,1.1,5
2016/6/12 6:21,1.6,4,1.6,3,2.1,4
2016/6/12 6:22,1.5,4,1.6,3,2,4
2016/6/12 6:23,1.5,4,1.5,3,2.1,3
2016/6/12 6:24,1.5,4,1.5,3,2.2,5
2016/6/12 6:25,1.4,4,1.4,3,1.6,5
2016/6/12 6:26,1.3,4,1.4,3,2.1,5
2016/6/12 6:27,1.3,4,1.3,3,2.1,4
2016/6/12 6:28,1.3,4,1.3,4,2.1,4
2016/6/12 6:29,1.4,4,1.4,4,3.7,2
2016/6/12 6:30,1.6,4,1.6,4,3.7,5
2016/6/12 6:31,1.8,4,1.8,4,3.2,5
2016/6/12 6:32,1.8,5,1.8,4,2.7,5
2016/6/12 6:33,1.8,5,1.8,4,2.7,5
2016/6/12 6:34,1.9,5,1.9,5,3.1,5
2016/6/12 6:35,2,5,2,5,2.7,5
2016/6/12 6:36,2,5,2,5,2.7,6
2016/6/12 6:37,2.1,5,2.1,5,3.3,5
2016/6/12 6:38,2.2,5,2.2,5,2.5,5
2016/6/12 6:39,2.1,5,2.2,5,1.8,5
2016/6/12 6:40,2,5,2.1,5,2,5
2016/6/12 6:41,1.9,5,2,5,2.4,5
2016/6/12 6:42,1.9,5,1.9,5,3.3,3
2016/6/12 6:43,2,5,2,5,3.8,4
2016/6/12 6:44,2,5,2,5,3.9,5
2016/6/12 6:45,2.1,5,2.1,5,4.5,4
2016/6/12 6:46,2.1,5,2.1,5,3.1,6
2016/6/12 6:47,2,5,2.1,5,3.3,4
2016/6/12 6:48,2.1,5,2.1,5,3.3,5
2016/6/12 6:49,2.1,5,2.1,5,2.6,5
2016/6/12 6:50,2.1,4,2.1,5,3,3
2016/6/12 6:51,2.2,4,2.2,4,3.2,4
2016/6/12 6:52,2.2,4,2.3,4,3.1,3
2016/6/12 6:53,2.2,4,2.3,4,5.1,4
2016/6/12 6:54,2.3,4,2.3,4,3.6,4
2016/6/12 6:55,2.2,4,2.3,4,3.7,5
2016/6/12 6:56,2.2,4,2.2,4,3,5
2016/6/12 6:57,2.2,4,2.2,4,2.7,5
2016/6/12 6:58,2.2,4,2.2,4,3.1,3
2016/6/12 6:59,2.3,4,2.3,4,3.9,3
2016/6/12 7:00,2.5,4,2.5,4,4.7,5
2016/6/12 7:01,2.6,4,2.6,4,4.4,4
2016/6/12 7:02,2.7,5,2.7,4,4.8,4
2016/6/12 7:03,2.6,5,2.7,4,3.1,5
2016/6/12 7:04,2.5,5,2.6,4,2.5,4
2016/6/12 7:05,2.4,4,2.5,4,2.5,4
2016/6/12 7:06,2.4,4,2.4,4,2.4,4
2016/6/12 7:07,2.4,4,2.4,4,3.9,3
2016/6/12 7:08,2.4,4,2.5,4,3.2,4
2016/6/12 7:09,2.3,4,2.4,4,2.5,4
2016/6/12 7:10,2.1,4,2.3,4,2.5,3
2016/6/12 7:11,1.9,4,2.1,4,2.5,4
2016/6/12 7:12,1.8,3,1.9,5,2.1,4
2016/6/12 7:13,1.7,3,1.7,5,2.6,3
2016/6/12 7:14,1.8,3,1.8,5,3.2,3
2016/6/12 7:15,1.8,3,1.8,4,2.7,3
2016/6/12 7:16,1.9,3,1.9,4,3.3,3
2016/6/12 7:17,1.9,3,2,4,3.6,3
2016/6/12 7:18,1.9,3,1.9,4,2.7,3
2016/6/12 7:19,1.8,3,1.9,4,2.2,3
2016/6/12 7:20,1.9,3,1.9,4,2.7,3
2016/6/12 7:21,2,3,2,3,3.2,3
2016/6/12 7:22,2,3,2,3,2.6,3
2016/6/12 7:23,2,3,2.1,3,2.6,4
2016/6/12 7:24,2,4,2,3,3.2,4
2016/6/12 7:25,1.9,4,2,3,2,4
2016/6/12 7:26,1.7,3,1.9,3,2.5,3
2016/6/12 7:27,1.7,3,1.7,3,3.2,4
2016/6/12 7:28,1.8,3,1.8,3,3.2,3
2016/6/12 7:29,1.9,3,1.9,3,3.6,3
2016/6/12 7:30,2,3,2,3,3.9,3
2016/6/12 7:31,2,3,2,3,3.5,3
2016/6/12 7:32,2,3,2,3,3,4
2016/6/12 7:33,2,3,2,3,2.9,4
2016/6/12 7:34,2.1,3,2.1,3,3,4
2016/6/12 7:35,2.2,3,2.2,3,3,3
2016/6/12 7:36,2.4,3,2.4,3,4.5,2
2016/6/12 7:37,2.6,4,2.6,3,5.1,3
2016/6/12 7:38,2.6,4,2.6,3,4.2,3
2016/6/12 7:39,2.5,4,2.6,3,3.1,3
2016/6/12 7:40,2.5,4,2.6,3,3.9,3
2016/6/12 7:41,2.5,4,2.5,3,3.2,4
2016/6/12 7:42,2.4,4,2.5,3,2.6,2
2016/6/12 7:43,2.5,4,2.5,3,4.2,4
2016/6/12 7:44,2.6,4,2.6,3,4.2,3
2016/6/12 7:45,2.6,4,2.6,3,3.5,3
2016/6/12 7:46,2.6,4,2.6,3,3.7,3
2016/6/12 7:47,2.4,3,2.6,4,3.1,3
2016/6/12 7:48,2.3,3,2.4,4,2.1,3
2016/6/12 7:49,2.2,3,2.3,4,1.6,4
2016/6/12 7:50,2.1,4,2.2,4,2.2,5
2016/6/12 7:51,2.1,3,2.1,4,3.5,3
2016/6/12 7:52,2.1,4,2.1,4,2.7,6
2016/6/12 7:53,2,4,2.1,4,2.4,5
2016/6/12 7:54,1.9,4,2,4,2.4,6
2016/6/12 7:55,1.7,5,1.9,4,2,6
2016/6/12 7:56,1.5,5,1.7,4,1.4,7
2016/6/12 7:57,1.5,5,1.5,3,3,5
2016/6/12 7:58,1.5,5,1.5,3,2.6,4
2016/6/12 7:59,1.7,5,1.7,3,3,3
2016/6/12 8:00,1.8,5,1.8,4,2.7,3
2016/6/12 8:01,1.7,5,1.8,4,2.2,3
2016/6/12 8:02,1.7,5,1.7,4,2.5,5
2016/6/12 8:03,1.8,4,1.8,4,2.9,4
2016/6/12 8:04,1.8,4,1.8,4,2.4,4
2016/6/12 8:05,1.8,4,1.8,5,2.2,4
2016/6/12 8:06,1.9,4,1.9,4,2.1,4
2016/6/12 8:07,1.9,4,1.9,4,3.8,4
2016/6/12 8:08,1.9,4,1.9,4,3.8,5
2016/6/12 8:09,1.9,4,1.9,4,2.5,5
2016/6/12 8:10,1.8,4,1.8,4,2.4,5
2016/6/12 8:11,1.8,5,1.8,4,2.9,5
2016/6/12 8:12,1.9,5,1.9,4,3,5
2016/6/12 8:13,1.9,5,1.9,4,3.3,5
2016/6/12 8:14,1.9,5,1.9,4,2.7,4
2016/6/12 8:15,2,5,2,5,2.5,5
2016/6/12 8:16,2,5,2,5,2.5,5
2016/6/12 8:17,1.9,5,2,5,2.6,5
2016/6/12 8:18,1.9,5,1.9,5,2.2,6
2016/6/12 8:19,1.8,5,1.9,5,2.1,3
2016/6/12 8:20,1.7,5,1.8,5,1.6,7
2016/6/12 8:21,1.7,5,1.7,5,2.1,6
2016/6/12 8:22,1.7,5,1.7,5,2.4,5
2016/6/12 8:23,1.5,5,1.6,5,2,6
2016/6/12 8:24,1.5,5,1.5,5,2.2,5
2016/6/12 8:25,1.4,5,1.5,5,2,5
2016/6/12 8:26,1.4,5,1.4,5,2.9,6
2016/6/12 8:27,1.5,5,1.5,5,3.7,5
2016/6/12 8:28,1.6,5,1.6,5,3.5,5
2016/6/12 8:29,1.7,5,1.7,5,3.9,5
2016/6/12 8:30,1.9,5,1.9,5,3,6
2016/6/12 8:31,1.8,5,1.9,5,2.2,5
2016/6/12 8:32,1.8,5,1.9,5,2.7,5
2016/6/12 8:33,1.8,5,1.8,5,2,6
2016/6/12 8:34,1.8,5,1.8,5,3,7
2016/6/12 8:35,1.9,5,1.9,5,3.2,5
2016/6/12 8:36,2,5,2,5,3.3,5
2016/6/12 8:37,2,5,2,5,3.2,4
2016/6/12 8:38,1.9,5,2,5,2.5,4
2016/6/12 8:39,1.8,5,1.9,5,3.3,4
2016/6/12 8:40,1.8,5,1.8,5,2.6,5
2016/6/12 8:41,1.9,5,1.9,5,3.2,5
2016/6/12 8:42,1.9,5,1.9,5,2.6,5
2016/6/12 8:43,2,4,2,5,2,5
2016/6/12 8:44,1.9,4,2,5,2.1,4
2016/6/12 8:45,1.9,4,2,5,2.4,5
2016/6/12 8:46,1.9,4,1.9,5,2.5,5
2016/6/12 8:47,1.9,4,1.9,5,3,5
2016/6/12 8:48,1.9,5,1.9,5,2.7,5
2016/6/12 8:49,1.8,5,1.9,5,2.7,6
2016/6/12 8:50,1.8,5,1.8,5,2.1,5
2016/6/12 8:51,1.7,5,1.7,5,2,5
2016/6/12 8:52,1.7,5,1.7,5,2,6
2016/6/12 8:53,1.6,5,1.7,4,1.9,6
2016/6/12 8:54,1.6,5,1.6,4,1.8,5
2016/6/12 8:55,1.5,5,1.6,4,1,4
2016/6/12 8:56,1.4,5,1.5,4,1.5,5
2016/6/12 8:57,1.3,5,1.4,4,1.5,4
2016/6/12 8:58,1.3,5,1.3,5,1.5,3
2016/6/12 8:59,1.2,5,1.3,5,1.8,5
2016/6/12 9:00,1.2,5,1.2,5,1.3,6
2016/6/12 9:01,1.2,5,1.2,5,2,6
2016/6/12 9:02,1.2,5,1.2,5,2.2,7
2016/6/12 9:03,1.2,5,1.2,5,2,5
2016/6/12 9:04,1.2,5,1.2,5,2.1,5
2016/6/12 9:05,1.3,5,1.3,5,1.8,6
2016/6/12 9:06,1.3,5,1.3,5,1.8,5
2016/6/12 9:07,1.3,5,1.3,5,2.6,4
2016/6/12 9:08,1.3,6,1.3,5,2.7,6
2016/6/12 9:09,1.4,6,1.4,6,2.9,5
2016/6/12 9:10,1.4,6,1.4,6,2.2,7
2016/6/12 9:11,1.5,6,1.5,6,3.1,7
2016/6/12 9:12,1.5,6,1.5,6,2,8
2016/6/12 9:13,1.5,6,1.5,6,2.6,7
2016/6/12 9:14,1.5,6,1.5,6,2.5,6
2016/6/12 9:15,1.5,6,1.6,6,2.4,6
2016/6/12 9:16,1.5,7,1.5,6,1.5,7
2016/6/12 9:17,1.5,7,1.5,6,1.9,7
2016/6/12 9:18,1.5,6,1.5,6,1.5,5
2016/6/12 9:19,1.4,6,1.5,6,2,5
2016/6/12 9:20,1.4,6,1.4,6,2.4,5
2016/6/12 9:21,1.4,6,1.4,6,3.2,3
2016/6/12 9:22,1.5,6,1.5,6,3.2,5
2016/6/12 9:23,1.5,5,1.5,6,4.2,2
2016/6/12 9:24,1.5,5,1.5,6,3,4
2016/6/12 9:25,1.6,5,1.6,5,3.2,5
2016/6/12 9:26,1.7,5,1.7,5,3.2,5
2016/6/12 9:27,1.8,5,1.8,5,2.9,5
2016/6/12 9:28,1.8,5,1.8,5,2.5,4
2016/6/12 9:29,2,5,2,5,4.2,5
2016/6/12 9:30,2,5,2,5,2.9,6
2016/6/12 9:31,1.9,5,2,5,2,6
2016/6/12 9:32,1.8,5,1.9,5,1.9,6
2016/6/12 9:33,1.7,6,1.8,5,1.6,8
2016/6/12 9:34,1.7,6,1.7,5,2,7
2016/6/12 9:35,1.5,6,1.7,5,2.2,5
2016/6/12 9:36,1.4,6,1.5,5,2.2,5
2016/6/12 9:37,1.4,6,1.4,5,3.2,5
2016/6/12 9:38,1.5,6,1.5,5,4.1,4
2016/6/12 9:39,1.6,6,1.6,5,4.7,5
2016/6/12 9:40,1.6,5,1.6,5,3.6,4
2016/6/12 9:41,1.8,5,1.8,5,4.1,5
2016/6/12 9:42,1.9,5,1.9,5,2.5,5
2016/6/12 9:43,1.9,5,2,5,2.4,5
2016/6/12 9:44,2,5,2,5,4.3,6
2016/6/12 9:45,2.2,5,2.2,5,3.6,6
2016/6/12 9:46,2.2,5,2.2,5,2.6,6
2016/6/12 9:47,2.4,5,2.4,5,4.7,5
2016/6/12 9:48,2.4,5,2.4,5,4.2,6
2016/6/12 9:49,2.2,5,2.4,5,3,4
2016/6/12 9:50,2.1,6,2.2,5,2.5,7
2016/6/12 9:51,2,6,2.1,5,3.5,6
2016/6/12 9:52,2.1,6,2.1,5,3.1,7
2016/6/12 9:53,2.2,6,2.2,5,2.7,5
2016/6/12 9:54,2.2,6,2.2,5,3.7,6
2016/6/12 9:55,2.2,6,2.2,5,4.4,6
2016/6/12 9:56,2.4,6,2.4,5,5.1,6
2016/6/12 9:57,2.4,6,2.5,6,4.2,6
2016/6/12 9:58,2.4,6,2.4,6,4.9,6
2016/6/12 9:59,2.6,6,2.6,6,4.3,6
2016/6/12 10:00,2.7,6,2.7,6,3.6,5
2016/6/12 10:01,2.8,6,2.8,6,4.2,6
2016/6/12 10:02,2.9,6,2.9,6,4.1,7
2016/6/12 10:03,2.9,6,2.9,6,3.7,7
2016/6/12 10:04,3,6,3,6,4.3,6
2016/6/12 10:05,2.9,6,3,6,4.1,6
2016/6/12 10:06,2.8,6,2.9,6,3.8,6
2016/6/12 10:07,2.9,6,2.9,6,4.7,6
2016/6/12 10:08,2.8,6,2.9,6,4.2,8
2016/6/12 10:09,2.6,6,2.7,6,2.7,7
2016/6/12 10:10,2.5,6,2.6,6,3.5,6
2016/6/12 10:11,2.5,6,2.5,6,2.7,4
2016/6/12 10:12,2.3,6,2.5,6,2.7,5
2016/6/12 10:13,2.2,6,2.3,6,3.9,5
2016/6/12 10:14,2.3,6,2.3,6,5.1,6
2016/6/12 10:15,2.4,6,2.5,6,4.9,6
2016/6/12 10:16,2.4,6,2.4,6,3.7,6
2016/6/12 10:17,2.3,6,2.4,6,3,4
2016/6/12 10:18,2.3,6,2.3,6,3.7,4
2016/6/12 10:19,2.5,5,2.5,6,4.4,5
2016/6/12 10:20,2.4,5,2.5,6,2.6,5
2016/6/12 10:21,2.4,5,2.5,6,3.1,4
2016/6/12 10:22,2.4,5,2.4,6,2.9,4
2016/6/12 10:23,2.6,5,2.6,5,3.9,3
2016/6/12 10:24,2.5,5,2.6,5,4.3,5
2016/6/12 10:25,2.3,5,2.4,5,3.3,5
2016/6/12 10:26,2.2,5,2.3,5,3.2,7
2016/6/12 10:27,2.1,5,2.2,5,2.4,4
2016/6/12 10:28,2.1,5,2.2,5,3.2,5
2016/6/12 10:29,2,5,2.1,5,2.6,6
2016/6/12 10:30,2,5,2,5,3.5,5
2016/6/12 10:31,2,5,2,5,3.6,8
2016/6/12 10:32,2.1,5,2.1,5,3,6
2016/6/12 10:33,2,5,2.1,5,3.2,5
2016/6/12 10:34,1.9,5,2,5,3.7,4
2016/6/12 10:35,1.9,5,2,5,3.9,5
2016/6/12 10:36,1.8,6,1.9,5,2,6
2016/6/12 10:37,1.8,6,1.8,5,1.3,8
2016/6/12 10:38,1.7,6,1.8,5,2.7,7
2016/6/12 10:39,1.7,6,1.8,5,3.2,7
2016/6/12 10:40,1.7,6,1.7,5,2.6,7
2016/6/12 10:41,1.7,6,1.7,5,3.7,6
2016/6/12 10:42,1.8,6,1.8,5,3.5,4
2016/6/12 10:43,1.9,6,1.9,5,3.9,5
2016/6/12 10:44,2,6,2,5,4.3,5
2016/6/12 10:45,2.1,6,2.1,6,4.7,5
2016/6/12 10:46,2.3,6,2.3,6,4.1,5
2016/6/12 10:47,2.4,6,2.4,6,4.7,5
2016/6/12 10:48,2.8,6,2.8,6,6,5
2016/6/12 10:49,2.9,5,2.9,6,4.1,5
2016/6/12 10:50,3,5,3,5,5,6
2016/6/12 10:51,3,5,3.1,5,5.5,4
2016/6/12 10:52,3.1,5,3.1,5,4.9,6
2016/6/12 10:53,3.1,5,3.1,5,4.9,6
2016/6/12 10:54,3.1,6,3.1,5,4.2,7
2016/6/12 10:55,3,6,3.1,5,5.7,8
2016/6/12 10:56,3,6,3.1,5,4.2,8
2016/6/12 10:57,2.9,6,3,5,3.3,6
2016/6/12 10:58,2.6,6,2.9,5,2.2,8
2016/6/12 10:59,2.5,6,2.6,5,2.7,6
2016/6/12 11:00,2.5,6,2.5,5,3.5,6
2016/6/12 11:01,2.3,6,2.4,5,3,5
2016/6/12 11:02,2.1,6,2.3,5,1.8,6
2016/6/12 11:03,2.1,6,2.1,5,3.5,7
2016/6/12 11:04,2.1,6,2.1,6,5,7
2016/6/12 11:05,2.1,6,2.2,6,4.3,6
2016/6/12 11:06,2.1,6,2.1,6,4.4,5
2016/6/12 11:07,2.2,6,2.2,6,4.9,6
2016/6/12 11:08,2.3,6,2.3,6,3.8,6
2016/6/12 11:09,2.5,6,2.5,6,5.4,6
2016/6/12 11:10,2.6,6,2.6,6,4.8,6
2016/6/12 11:11,2.6,6,2.6,6,3.8,5
2016/6/12 11:12,2.7,6,2.7,6,3.9,6
2016/6/12 11:13,2.9,6,2.9,6,4.5,5
2016/6/12 11:14,2.9,6,2.9,6,5.6,6
2016/6/12 11:15,3.1,6,3.1,6,4.8,5
2016/6/12 11:16,3.1,6,3.2,6,4.3,6
2016/6/12 11:17,3,6,3.1,6,3,6
2016/6/12 11:18,3.1,6,3.1,6,3.9,5
2016/6/12 11:19,3,6,3.1,6,4.9,5
2016/6/12 11:20,3,6,3,6,4.1,5
2016/6/12 11:21,2.9,6,3,6,3.2,5
2016/6/12 11:22,2.9,6,2.9,6,3.1,7
2016/6/12 11:23,2.8,6,2.9,6,3,6
2016/6/12 11:24,2.6,6,2.8,6,3,6
2016/6/12 11:25,2.4,6,2.6,6,3,5
2016/6/12 11:26,2.3,5,2.4,6,3.5,7
2016/6/12 11:27,2.3,5,2.3,6,3.5,6
2016/6/12 11:28,2.3,5,2.4,6,4.1,5
2016/6/12 11:29,2.2,6,2.3,6,3,5
2016/6/12 11:30,2.2,5,2.2,6,3.9,4
2016/6/12 11:31,2.3,5,2.3,6,4.2,5
2016/6/12 11:32,2.3,5,2.3,6,3.6,4
2016/6/12 11:33,2.3,5,2.3,6,3.8,4
2016/6/12 11:34,2.4,5,2.4,5,3.1,5
2016/6/12 11:35,2.4,5,2.4,6,3.8,5
2016/6/12 11:36,2.5,5,2.6,5,4.1,5
2016/6/12 11:37,2.6,5,2.6,5,3.2,6
2016/6/12 11:38,2.5,5,2.6,5,3.8,6
2016/6/12 11:39,2.7,5,2.7,5,4.1,6
2016/6/12 11:40,2.6,5,2.7,5,3.9,6
2016/6/12 11:41,2.5,5,2.6,5,3.1,5
2016/6/12 11:42,2.5,5,2.5,5,3,6
2016/6/12 11:43,2.3,5,2.4,5,2.4,6
2016/6/12 11:44,2.3,5,2.3,5,2.5,5
2016/6/12 11:45,2.2,6,2.2,5,3.2,6
2016/6/12 11:46,2.1,6,2.2,5,2.9,6
2016/6/12 11:47,2.2,6,2.2,5,4.7,5
2016/6/12 11:48,2.2,6,2.2,5,3.6,5
2016/6/12 11:49,2.2,5,2.2,5,5,4
2016/6/12 11:50,2.1,5,2.2,5,3.5,5